DW6567 Weather Reports


time (UTC)temp
F
wind
direction
speed
knots
gust
knots
rain 1hr
in
rain 24hr
in
rain mn
in
humidity
%
barometer
mb
20260505040020 0 180 3.5 7.8 0.00 0.00 0.00 67
20260505033020 0 180 2.6 6.1 0.00 0.00 0.00 68
20260505030024 55 180 2.6 5.2 0.00 0.00 0.00 68 1010.4
20260505023021 56 180 2.6 6.1 0.00 0.00 0.00 65 1010.5
20260505020040 56 180 2.6 5.2 0.00 0.00 0.00 64 1010.6
20260505013015 57 157 2.6 4.3 0.00 0.00 0.00 63 1010.4
20260505010022 58 157 2.6 5.2 0.00 0.00 0.00 61 1010.1
20260505003022 60 180 1.7 3.5 0.00 0.00 0.00 55 1009.6
20260505000022 0 202 1.7 4.3 0.00 0.00 0.00 46
20260504233025 0 202 1.7 3.5 0.00 0.00 0.00 43
20260504230022 66 202 1.7 3.5 0.00 0.00 0.00 41 1008.4
20260504223016 67 180 1.7 4.3 0.00 0.00 0.00 39 1008.4
20260504220021 68 202 1.7 4.3 0.00 0.00 0.00 37 1008.7
20260504213016 69 225 1.7 5.2 0.00 0.00 0.00 36 1009.0
20260504210023 69 247 1.7 5.2 0.00 0.00 0.00 35 1009.1
20260504203020 71 247 1.7 6.1 0.00 0.00 0.00 33 1009.0
20260504200042 0 225 1.7 4.3 0.00 0.00 0.00 33
20260504193021 0 202 1.7 5.2 0.00 0.00 0.00 32
20260504190021 70 247 2.6 5.2 0.00 0.00 0.00 35 1009.7
20260504183021 69 247 2.6 6.1 0.00 0.00 0.00 36 1010.0
20260504180021 69 225 1.7 5.2 0.00 0.00 0.00 35 1010.4
20260504173042 67 247 2.6 9.6 0.00 0.00 0.00 36 1010.8